Lid_Strength_Index
2 5 6 9 11 11 15 13 10 10 9 6 6 7 8 7 9 12 2 1 0 0 0 -1 -1 -1 -1 -1 -1 -1 -1 -1 -1 -1 -1 -1 -1 -1 -1 -1 -1 -1 -1 -1 -1 -1 -1 -1 -1
7 8 9 11 12 14 14 11 11 9 7 6 6 7 7 9 5 4 4 0 -0 0 0 0 -1 -1 -1 -1 -1 -1 -1 -1 -1 -1 -1 -1 -1 -1 -1 -1 -1 -1 -1 -1 -1 -1 -1 -1 -1
6 8 11 13 14 14 14 10 9 7 6 6 7 5 6 7 4 4 2 0 -0 0 0 0 -1 -1 -1 -1 -1 -2 -1 -2 -1 -1 -1 -1 -1 -1 -1 -1 -1 -1 -1 -1 -1 -1 -1 -1 -1
10 10 12 14 15 14 11 9 8 8 7 6 6 8 5 3 3 2 0 0 0 0 0 -1 -1 -1 -1 -1 -1 -1 -1 -1 -1 -1 -1 -1 -1 -1 -2 -2 -1 -1 -1 -1 -1 -1 -1 -1 -1
10 12 15 16 16 13 9 8 7 9 8 7 6 9 7 3 3 1 1 0 1 0 0 -0 -1 -1 -1 -1 -1 -2 -2 -2 -2 -2 -1 -1 -2 -2 -2 -2 -2 -1 -1 -1 -1 -1 -2 -1 -1
12 13 16 17 16 10 9 7 7 8 7 7 7 8 7 3 3 2 1 0 -0 0 0 0 -1 -2 -2 -2 -2 -2 -2 -2 -2 -2 -2 -2 -2 -2 -2 -2 -2 -1 -1 -1 -1 -2 -2 -2 -2
13 15 16 15 15 11 9 6 8 9 8 8 5 9 7 4 2 1 1 0 -0 -0 0 0 -0 -1 -2 -2 -2 -2 -2 -2 -2 -2 -3 -2 -2 -2 -2 -2 -2 -2 -2 -2 -2 -2 -2 -2 -3
12 14 17 17 15 13 8 7 6 7 8 4 4 9 9 4 2 2 1 1 1 0 0 0 0 -0 -0 -0 -2 -2 -2 -2 -2 -3 -3 -2 -2 -2 -3 -3 -3 -4 -4 -3 -3 -3 -3 -3 -3
12 14 16 14 15 13 8 9 7 5 6 6 5 5 4 2 2 2 2 2 2 1 0 0 0 0 0 0 -0 -2 -2 -3 -3 -3 -3 -1 -0 -1 -1 -4 -4 -4 -4 -4 -4 -4 -3 -3 -3
12 15 14 12 11 9 8 8 7 7 7 7 6 4 3 3 3 3 3 3 3 2 1 0 0 0 0 -1 0 0 -0 -0 -0 -0 -0 1 -0 -1 -1 -2 -3 -3 -3 -3 -3 -3 -3 -2 -0
12 13 12 10 7 7 7 8 6 7 9 7 7 6 4 4 3 4 3 3 3 2 1 1 0 0 0 0 0 0 0 -0 0 -0 -0 1 1 2 1 1 1 1 -0 1 1 1 1 1 1
10 11 11 10 8 7 8 7 7 7 7 5 4 4 4 4 4 4 3 3 3 2 1 1 0 0 0 0 0 0 -0 -0 1 1 0 1 1 1 2 2 1 1 1 1 1 1 1 0 1
11 11 10 10 10 6 7 7 7 7 5 4 4 4 4 4 4 3 3 2 3 2 1 1 0 0 0 1 0 1 0 0 0 1 1 1 1 2 2 1 1 1 1 1 1 1 1 1 1
9 10 10 11 12 10 7 8 7 6 5 5 5 5 4 4 4 3 4 3 4 2 3 2 1 0 2 2 2 2 1 2 1 1 1 1 1 2 2 2 2 3 3 3 3 3 3 3 3
9 10 10 11 10 9 6 10 9 6 5 6 6 5 5 4 5 5 4 5 4 3 3 5 3 2 4 3 3 3 2 2 2 2 2 2 3 4 4 4 5 4 4 4 4 4 4 3 3
11 12 13 11 10 8 8 12 7 6 6 7 6 5 5 6 6 6 5 5 5 4 6 6 4 5 6 5 2 2 1 2 3 4 4 4 4 5 5 5 6 5 5 5 4 4 5 5 5
12 14 13 11 10 9 11 11 7 6 7 7 6 6 6 7 9 8 7 6 6 5 7 4 3 6 4 2 1 2 3 4 5 5 5 5 5 5 6 7 6 6 5 5 5 5 6 6 6
14 14 13 13 11 11 11 10 9 7 7 7 6 7 7 7 6 7 6 6 6 7 7 3 3 3 2 1 2 4 5 5 5 5 6 6 6 7 7 7 6 5 6 6 6 6 5 6 6
12 13 13 12 10 11 12 12 10 7 7 8 7 7 8 8 7 8 7 7 6 7 5 3 3 2 1 1 3 3 5 6 6 6 7 8 8 8 8 6 6 6 6 6 6 6 6 6 5
12 13 13 11 10 12 12 11 11 8 8 7 7 6 7 9 8 7 5 6 6 5 5 3 4 4 4 4 5 4 5 6 7 7 8 8 8 7 7 7 6 6 6 6 6 6 6 6 5
12 12 12 12 11 11 12 12 12 9 9 9 8 7 7 8 9 8 5 4 5 6 6 5 6 6 6 6 6 7 6 6 7 8 9 8 8 7 7 7 6 6 6 7 6 6 6 7 6
13 10 10 11 12 14 13 16 13 12 10 11 11 9 8 9 9 7 4 5 6 6 7 6 6 6 7 7 7 8 8 8 8 10 10 9 8 8 8 6 6 6 6 6 6 5 6 7 8
11 10 11 11 13 14 13 15 13 12 12 11 8 7 7 6 8 5 6 7 7 7 8 8 8 8 8 8 8 8 8 9 10 11 11 10 9 8 6 6 6 6 6 5 5 6 7 7 7
9 11 12 13 14 16 15 15 15 12 11 10 9 7 6 6 5 5 6 8 9 9 9 9 9 9 9 9 9 9 10 11 12 11 11 10 8 7 6 6 6 6 5 6 7 7 7 7 7
11 14 17 17 17 17 14 14 14 10 9 9 9 7 6 5 6 7 8 9 8 9 9 9 9 10 9 9 10 10 11 11 11 11 10 9 9 8 7 5 6 6 7 7 7 7 7 8 8
13 13 16 18 18 16 14 15 13 8 8 7 7 6 7 7 8 8 9 9 9 9 9 10 10 10 9 10 11 11 11 11 10 9 9 9 8 8 6 6 6 7 7 6 6 7 8 7 6
12 14 13 16 16 17 16 13 10 9 9 8 8 8 8 9 10 10 10 10 11 11 11 10 10 10 10 11 11 11 10 10 10 9 9 8 8 7 6 6 7 6 6 6 6 7 7 5 5
11 11 14 16 18 19 17 15 15 12 11 9 9 11 10 10 11 11 11 11 11 10 10 10 11 11 11 11 11 10 10 10 10 9 8 8 7 6 7 7 6 6 7 6 6 7 7 5 5
13 14 14 14 16 18 19 16 10 10 9 10 9 10 11 11 11 11 11 10 10 10 10 10 10 11 11 11 11 10 10 10 9 9 8 8 7 7 8 7 7 7 7 7 7 7 7 7 5
11 12 14 16 16 16 16 15 9 9 9 8 8 9 10 11 11 11 10 10 10 11 11 11 11 11 11 11 11 11 11 10 9 9 8 7 7 8 8 7 7 7 7 7 8 8 7 7 6